Time,TemperatureF,DewpointF,PressureIn,WindDirection,WindDirectionDegrees,WindSpeedMPH,WindSpeedGustMPH,Humidity,HourlyPrecipIn,Conditions,Clouds,dailyrainin,SoftwareType,DateUTC
2013-04-09 00:00:00,43.3,41.4,29.93,NW,307,4.0,10.0,93,0.00,,,0.18,VWS V14.01,2013-04-09 04:00:00,
2013-04-09 00:05:00,43.2,41.3,29.93,NW,304,3.0,6.0,93,0.00,,,0.00,VWS V14.01,2013-04-09 04:05:00,
2013-04-09 00:10:00,43.1,41.2,29.93,NW,304,1.0,6.0,93,0.00,,,0.00,VWS V14.01,2013-04-09 04:10:00,
2013-04-09 00:15:00,42.9,41.0,29.93,NW,305,0.0,6.0,93,0.00,,,0.00,VWS V14.01,2013-04-09 04:15:00,
2013-04-09 00:20:00,42.7,40.8,29.94,NW,305,1.0,6.0,93,0.00,,,0.00,VWS V14.01,2013-04-09 04:20:00,
2013-04-09 00:25:00,42.5,40.6,29.94,NNW,331,3.0,7.0,93,0.00,,,0.00,VWS V14.01,2013-04-09 04:25:00,
2013-04-09 00:30:00,42.3,40.4,29.94,NW,306,1.0,7.0,93,0.00,,,0.00,VWS V14.01,2013-04-09 04:30:00,
2013-04-09 00:35:00,42.2,40.6,29.95,NW,306,4.0,7.0,94,0.00,,,0.00,VWS V14.01,2013-04-09 04:35:00,
2013-04-09 00:40:00,42.0,40.4,29.95,WNW,301,1.0,7.0,94,0.00,,,0.00,VWS V14.01,2013-04-09 04:40:00,
2013-04-09 00:45:00,42.0,40.4,29.95,West,269,2.0,7.0,94,0.00,,,0.00,VWS V14.01,2013-04-09 04:45:00,
2013-04-09 00:50:00,42.0,40.4,29.95,West,270,2.0,7.0,94,0.00,,,0.00,VWS V14.01,2013-04-09 04:50:00,
2013-04-09 00:55:00,42.0,40.7,29.96,WNW,289,3.0,8.0,95,0.00,,,0.00,VWS V14.01,2013-04-09 04:55:00,
2013-04-09 01:00:00,41.9,40.6,29.96,NW,314,0.0,1.0,95,0.00,,,0.00,VWS V14.01,2013-04-09 05:00:00,
2013-04-09 01:05:00,42.0,40.7,29.96,WNW,293,7.0,8.0,95,0.00,,,0.00,VWS V14.01,2013-04-09 05:05:00,
2013-04-09 01:10:00,42.2,40.9,29.95,WNW,284,6.0,8.0,95,0.00,,,0.00,VWS V14.01,2013-04-09 05:10:00,
2013-04-09 01:15:00,42.2,40.9,29.95,NW,318,0.0,8.0,95,0.00,,,0.00,VWS V14.01,2013-04-09 05:15:00,
2013-04-09 01:20:00,42.1,40.8,29.95,West,261,6.0,8.0,95,0.00,,,0.00,VWS V14.01,2013-04-09 05:20:00,
2013-04-09 01:25:00,42.1,40.8,29.95,NW,315,5.0,8.0,95,0.00,,,0.00,VWS V14.01,2013-04-09 05:25:00,
2013-04-09 01:30:00,42.1,40.8,29.96,NW,315,0.0,8.0,95,0.00,,,0.00,VWS V14.01,2013-04-09 05:30:00,
2013-04-09 01:35:00,42.0,40.7,29.96,NW,315,2.0,8.0,95,0.00,,,0.00,VWS V14.01,2013-04-09 05:35:00,
2013-04-09 01:40:00,41.9,40.6,29.96,NW,317,2.0,8.0,95,0.00,,,0.00,VWS V14.01,2013-04-09 05:40:00,
2013-04-09 01:45:00,41.8,40.8,29.96,NW,309,1.0,8.0,96,0.00,,,0.00,VWS V14.01,2013-04-09 05:45:00,
2013-04-09 01:50:00,41.8,40.8,29.96,NW,315,1.0,8.0,96,0.00,,,0.00,VWS V14.01,2013-04-09 05:50:00,
2013-04-09 01:55:00,41.9,40.8,29.97,NW,315,1.0,8.0,96,0.00,,,0.00,VWS V14.01,2013-04-09 05:55:00,
2013-04-09 02:00:00,41.9,40.8,29.97,NW,313,0.0,8.0,96,0.00,,,0.00,VWS V14.01,2013-04-09 06:00:00,
2013-04-09 02:05:00,41.9,40.8,29.97,NW,312,1.0,5.0,96,0.00,,,0.00,VWS V14.01,2013-04-09 06:05:00,
2013-04-09 02:10:00,41.9,40.8,29.97,NW,312,0.0,5.0,96,0.00,,,0.00,VWS V14.01,2013-04-09 06:10:00,
2013-04-09 02:15:00,41.8,40.8,29.97,NW,312,0.0,5.0,96,0.00,,,0.00,VWS V14.01,2013-04-09 06:15:00,
2013-04-09 02:20:00,41.8,40.8,29.98,NW,311,0.0,5.0,96,0.00,,,0.00,VWS V14.01,2013-04-09 06:20:00,
2013-04-09 02:25:00,41.8,40.8,29.98,NW,311,0.0,5.0,96,0.00,,,0.00,VWS V14.01,2013-04-09 06:25:00,
2013-04-09 02:30:00,41.8,40.8,29.97,NW,312,1.0,5.0,96,0.00,,,0.00,VWS V14.01,2013-04-09 06:30:00,
2013-04-09 02:35:00,41.8,40.8,29.98,NW,312,3.0,5.0,96,0.00,,,0.00,VWS V14.01,2013-04-09 06:35:00,
2013-04-09 02:40:00,42.0,40.9,29.98,NW,312,0.0,5.0,96,0.00,,,0.00,VWS V14.01,2013-04-09 06:40:00,
2013-04-09 02:45:00,42.0,40.9,29.98,NW,312,0.0,5.0,96,0.00,,,0.00,VWS V14.01,2013-04-09 06:45:00,
2013-04-09 02:50:00,42.1,41.0,29.98,NW,311,1.0,5.0,96,0.00,,,0.00,VWS V14.01,2013-04-09 06:50:00,
2013-04-09 02:55:00,42.2,41.1,29.98,WNW,296,1.0,7.0,96,0.00,,,0.00,VWS V14.01,2013-04-09 06:55:00,
2013-04-09 03:00:00,42.3,41.2,29.98,WNW,295,0.0,7.0,96,0.00,,,0.00,VWS V14.01,2013-04-09 07:00:00,
2013-04-09 03:05:00,42.3,41.2,29.97,WNW,295,1.0,4.0,96,0.00,,,0.00,VWS V14.01,2013-04-09 07:05:00,
2013-04-09 03:10:00,42.4,41.6,29.97,WNW,295,0.0,5.0,97,0.00,,,0.00,VWS V14.01,2013-04-09 07:10:00,
2013-04-09 03:15:00,42.4,41.6,29.97,WNW,300,0.0,5.0,97,0.00,,,0.00,VWS V14.01,2013-04-09 07:15:00,
2013-04-09 03:20:00,42.4,41.6,29.97,WNW,300,0.0,5.0,97,0.00,,,0.00,VWS V14.01,2013-04-09 07:20:00,
2013-04-09 03:25:00,42.4,41.6,29.98,WNW,300,0.0,5.0,97,0.00,,,0.00,VWS V14.01,2013-04-09 07:25:00,
2013-04-09 03:30:00,42.5,41.4,29.98,WNW,300,0.0,5.0,96,0.00,,,0.00,VWS V14.01,2013-04-09 07:30:00,
2013-04-09 03:35:00,42.5,41.4,29.97,WNW,300,1.0,5.0,96,0.00,,,0.00,VWS V14.01,2013-04-09 07:35:00,
2013-04-09 03:40:00,42.4,41.6,29.98,WNW,300,0.0,5.0,97,0.00,,,0.00,VWS V14.01,2013-04-09 07:40:00,
2013-04-09 03:45:00,42.4,41.6,29.98,WNW,300,0.0,5.0,97,0.00,,,0.00,VWS V14.01,2013-04-09 07:45:00,
2013-04-09 03:50:00,42.4,41.6,29.98,WNW,300,0.0,5.0,97,0.00,,,0.00,VWS V14.01,2013-04-09 07:50:00,
2013-04-09 03:55:00,42.4,41.3,29.98,WNW,300,0.0,5.0,96,0.00,,,0.00,VWS V14.01,2013-04-09 07:55:00,
2013-04-09 04:00:00,42.4,41.6,29.98,WNW,300,2.0,5.0,97,0.00,,,0.00,VWS V14.01,2013-04-09 08:00:00,
2013-04-09 04:05:00,42.3,41.5,29.97,WNW,300,0.0,5.0,97,0.00,,,0.00,VWS V14.01,2013-04-09 08:05:00,
2013-04-09 04:10:00,42.3,41.5,29.97,WNW,300,0.0,5.0,97,0.00,,,0.00,VWS V14.01,2013-04-09 08:10:00,
2013-04-09 04:15:00,42.3,41.5,29.98,WNW,300,0.0,5.0,97,0.00,,,0.00,VWS V14.01,2013-04-09 08:15:00,
2013-04-09 04:20:00,42.3,41.5,29.98,WNW,300,0.0,5.0,97,0.00,,,0.00,VWS V14.01,2013-04-09 08:20:00,
2013-04-09 04:25:00,42.3,41.5,29.98,WNW,300,0.0,5.0,97,0.00,,,0.00,VWS V14.01,2013-04-09 08:25:00,
2013-04-09 04:30:00,42.3,41.5,29.99,WNW,300,0.0,5.0,97,0.00,,,0.00,VWS V14.01,2013-04-09 08:30:00,
2013-04-09 04:35:00,42.3,41.5,29.99,WNW,300,0.0,5.0,97,0.00,,,0.00,VWS V14.01,2013-04-09 08:35:00,
2013-04-09 04:40:00,42.4,41.6,29.99,WNW,300,0.0,5.0,97,0.00,,,0.00,VWS V14.01,2013-04-09 08:40:00,
2013-04-09 04:45:00,42.4,41.6,29.99,WNW,300,0.0,5.0,97,0.00,,,0.00,VWS V14.01,2013-04-09 08:45:00,
2013-04-09 04:50:00,42.4,41.6,29.99,WNW,300,0.0,5.0,97,0.00,,,0.00,VWS V14.01,2013-04-09 08:50:00,
2013-04-09 04:55:00,42.4,41.6,29.99,WNW,300,0.0,5.0,97,0.00,,,0.00,VWS V14.01,2013-04-09 08:55:00,
2013-04-09 05:00:00,42.4,41.6,29.99,WNW,300,0.0,5.0,97,0.00,,,0.00,VWS V14.01,2013-04-09 09:00:00,
2013-04-09 05:05:00,42.4,41.6,29.99,WNW,300,1.0,2.0,97,0.00,,,0.00,VWS V14.01,2013-04-09 09:05:00,
2013-04-09 05:10:00,42.4,41.6,29.98,WNW,300,0.0,4.0,97,0.00,,,0.00,VWS V14.01,2013-04-09 09:10:00,
2013-04-09 05:15:00,42.4,41.6,29.99,WNW,300,0.0,4.0,97,0.00,,,0.00,VWS V14.01,2013-04-09 09:15:00,
2013-04-09 05:20:00,42.4,41.6,29.99,WNW,300,0.0,4.0,97,0.00,,,0.00,VWS V14.01,2013-04-09 09:20:00,
2013-04-09 05:25:00,42.4,41.6,29.99,WNW,300,0.0,4.0,97,0.00,,,0.00,VWS V14.01,2013-04-09 09:25:00,
2013-04-09 05:30:00,42.4,41.6,29.99,WNW,300,0.0,4.0,97,0.00,,,0.00,VWS V14.01,2013-04-09 09:30:00,
2013-04-09 05:35:00,42.4,41.6,29.99,WNW,300,0.0,4.0,97,0.00,,,0.00,VWS V14.01,2013-04-09 09:35:00,
2013-04-09 05:40:00,42.4,41.6,29.99,WNW,300,1.0,4.0,97,0.00,,,0.00,VWS V14.01,2013-04-09 09:40:00,
2013-04-09 05:45:00,42.4,41.6,29.99,WNW,300,0.0,4.0,97,0.00,,,0.00,VWS V14.01,2013-04-09 09:45:00,
2013-04-09 05:50:00,42.4,41.6,29.99,WNW,300,0.0,4.0,97,0.00,,,0.00,VWS V14.01,2013-04-09 09:50:00,
2013-04-09 05:55:00,42.4,41.6,30.00,WNW,300,0.0,4.0,97,0.00,,,0.00,VWS V14.01,2013-04-09 09:55:00,
2013-04-09 06:00:00,42.4,41.6,30.00,WNW,300,0.0,0.0,97,0.00,,,0.00,VWS V14.01,2013-04-09 10:00:00,
2013-04-09 06:05:00,42.4,41.6,30.01,WNW,300,0.0,0.0,97,0.00,,,0.00,VWS V14.01,2013-04-09 10:05:00,
2013-04-09 06:10:00,42.4,41.6,30.01,WNW,300,2.0,2.0,97,0.00,,,0.00,VWS V14.01,2013-04-09 10:10:00,
2013-04-09 06:15:00,42.4,41.6,30.01,WNW,300,0.0,4.0,97,0.00,,,0.00,VWS V14.01,2013-04-09 10:15:00,
2013-04-09 06:20:00,42.5,41.7,30.00,WNW,300,4.0,4.0,97,0.00,,,0.00,VWS V14.01,2013-04-09 10:20:00,
2013-04-09 06:25:00,42.5,41.7,30.01,NE,34,0.0,5.0,97,0.00,,,0.00,VWS V14.01,2013-04-09 10:25:00,
2013-04-09 06:30:00,42.5,41.7,30.01,NNE,33,0.0,5.0,97,0.00,,,0.00,VWS V14.01,2013-04-09 10:30:00,
2013-04-09 06:35:00,42.6,41.8,30.01,NE,36,1.0,5.0,97,0.00,,,0.00,VWS V14.01,2013-04-09 10:35:00,
2013-04-09 06:40:00,42.6,41.8,30.01,NE,40,0.0,5.0,97,0.00,,,0.00,VWS V14.01,2013-04-09 10:40:00,
2013-04-09 06:45:00,42.6,41.8,30.01,ENE,60,0.0,6.0,97,0.00,,,0.00,VWS V14.01,2013-04-09 10:45:00,
2013-04-09 06:50:00,42.6,41.8,30.01,ENE,62,0.0,6.0,97,0.00,,,0.00,VWS V14.01,2013-04-09 10:50:00,
2013-04-09 06:55:00,42.7,41.9,30.01,ENE,62,1.0,6.0,97,0.00,,,0.00,VWS V14.01,2013-04-09 10:55:00,
2013-04-09 07:00:00,42.7,41.9,30.01,ENE,67,2.0,5.0,97,0.00,,,0.00,VWS V14.01,2013-04-09 11:00:00,
2013-04-09 07:05:00,42.7,41.9,30.01,ENE,67,0.0,5.0,97,0.00,,,0.00,VWS V14.01,2013-04-09 11:05:00,
2013-04-09 07:10:00,42.8,42.0,30.01,ENE,67,2.0,5.0,97,0.00,,,0.00,VWS V14.01,2013-04-09 11:10:00,
2013-04-09 07:15:00,42.8,42.0,30.01,ENE,71,3.0,6.0,97,0.00,,,0.00,VWS V14.01,2013-04-09 11:15:00,
2013-04-09 07:20:00,42.8,42.0,30.01,SE,135,7.0,7.0,97,0.00,,,0.00,VWS V14.01,2013-04-09 11:20:00,
2013-04-09 07:25:00,42.8,42.0,30.01,SE,134,2.0,7.0,97,0.00,,,0.00,VWS V14.01,2013-04-09 11:25:00,
2013-04-09 07:30:00,42.8,42.0,30.01,East,82,4.0,7.0,97,0.00,,,0.00,VWS V14.01,2013-04-09 11:30:00,
2013-04-09 07:35:00,42.7,41.9,30.01,ESE,103,3.0,9.0,97,0.00,,,0.00,VWS V14.01,2013-04-09 11:35:00,
2013-04-09 07:40:00,42.7,41.9,30.01,ESE,113,0.0,9.0,97,0.00,,,0.00,VWS V14.01,2013-04-09 11:40:00,
2013-04-09 07:45:00,42.7,41.9,30.01,ESE,113,1.0,9.0,97,0.00,,,0.00,VWS V14.01,2013-04-09 11:45:00,
2013-04-09 07:50:00,42.7,41.9,30.01,East,99,1.0,9.0,97,0.00,,,0.00,VWS V14.01,2013-04-09 11:50:00,
2013-04-09 07:55:00,42.7,41.9,30.00,ENE,78,4.0,9.0,97,0.00,,,0.00,VWS V14.01,2013-04-09 11:55:00,
2013-04-09 08:00:00,42.7,41.9,30.01,ENE,78,2.0,2.0,97,0.00,,,0.00,VWS V14.01,2013-04-09 12:00:00,
2013-04-09 08:05:00,42.8,42.0,30.02,ENE,69,0.0,7.0,97,0.00,,,0.00,VWS V14.01,2013-04-09 12:05:00,
2013-04-09 08:10:00,42.8,42.0,30.02,ENE,69,2.0,7.0,97,0.00,,,0.00,VWS V14.01,2013-04-09 12:10:00,
2013-04-09 08:15:00,42.9,42.1,30.02,ENE,68,1.0,7.0,97,0.00,,,0.00,VWS V14.01,2013-04-09 12:15:00,
2013-04-09 08:20:00,43.0,42.2,30.02,ENE,71,1.0,7.0,97,0.00,,,0.00,VWS V14.01,2013-04-09 12:20:00,
2013-04-09 08:26:00,43.2,42.4,30.02,ENE,71,3.0,7.0,97,0.00,,,0.00,VWS V14.01,2013-04-09 12:26:00,
2013-04-09 08:31:00,43.5,42.7,30.02,ENE,78,1.0,7.0,97,0.00,,,0.00,VWS V14.01,2013-04-09 12:31:00,
2013-04-09 08:36:00,43.9,43.1,30.02,ESE,123,0.0,9.0,97,0.00,,,0.00,VWS V14.01,2013-04-09 12:36:00,
2013-04-09 08:40:00,44.5,43.7,30.02,SE,124,0.0,9.0,97,0.00,,,0.00,VWS V14.01,2013-04-09 12:40:00,
2013-04-09 08:45:00,44.9,43.8,30.02,SE,129,6.0,9.0,96,0.00,,,0.00,VWS V14.01,2013-04-09 12:45:00,
2013-04-09 08:51:00,44.9,43.8,30.02,ENE,77,2.0,9.0,96,0.00,,,0.00,VWS V14.01,2013-04-09 12:51:00,
2013-04-09 08:56:00,45.0,43.7,30.01,East,79,1.0,9.0,95,0.00,,,0.00,VWS V14.01,2013-04-09 12:56:00,
2013-04-09 09:00:00,45.1,43.8,30.01,East,94,0.0,9.0,95,0.00,,,0.00,VWS V14.01,2013-04-09 13:00:00,
2013-04-09 09:01:00,45.2,43.9,30.01,ESE,110,6.0,6.0,95,0.00,,,0.00,VWS V14.01,2013-04-09 13:01:00,
2013-04-09 09:06:00,45.7,44.3,30.01,ESE,119,5.0,12.0,95,0.00,,,0.00,VWS V14.01,2013-04-09 13:06:00,
2013-04-09 09:11:00,45.8,44.2,30.02,East,94,1.0,12.0,94,0.00,,,0.00,VWS V14.01,2013-04-09 13:11:00,
2013-04-09 09:16:00,45.8,44.2,30.01,SE,129,5.0,12.0,94,0.00,,,0.00,VWS V14.01,2013-04-09 13:16:00,
2013-04-09 09:20:00,45.9,44.3,30.01,ESE,121,6.0,12.0,94,0.00,,,0.00,VWS V14.01,2013-04-09 13:20:00,
2013-04-09 09:26:00,46.1,44.5,30.01,SE,130,5.0,12.0,94,0.00,,,0.00,VWS V14.01,2013-04-09 13:26:00,
2013-04-09 09:31:00,46.2,44.3,30.00,East,83,4.0,12.0,93,0.00,,,0.00,VWS V14.01,2013-04-09 13:31:00,
2013-04-09 09:36:00,46.7,45.1,30.00,East,82,5.0,12.0,94,0.00,,,0.00,VWS V14.01,2013-04-09 13:36:00,
2013-04-09 09:41:00,47.0,45.1,29.99,ESE,114,5.0,12.0,93,0.00,,,0.00,VWS V14.01,2013-04-09 13:41:00,
2013-04-09 09:45:00,47.2,45.0,29.99,SE,125,5.0,12.0,92,0.00,,,0.00,VWS V14.01,2013-04-09 13:45:00,
2013-04-09 09:50:00,47.4,44.9,30.00,ESE,107,1.0,12.0,91,0.00,,,0.00,VWS V14.01,2013-04-09 13:50:00,
2013-04-09 09:55:00,47.9,45.4,30.00,SSE,149,12.0,12.0,91,0.00,,,0.00,VWS V14.01,2013-04-09 13:55:00,
2013-04-09 10:00:00,48.6,46.1,30.00,SE,140,9.0,12.0,91,0.00,,,0.00,VWS V14.01,2013-04-09 14:00:00,
2013-04-09 10:01:00,48.7,45.9,30.00,SE,128,5.0,10.0,90,0.00,,,0.00,VWS V14.01,2013-04-09 14:01:00,
2013-04-09 10:06:00,48.9,45.8,30.00,East,101,4.0,10.0,89,0.00,,,0.00,VWS V14.01,2013-04-09 14:06:00,
2013-04-09 10:11:00,48.5,45.1,30.00,ENE,76,4.0,12.0,88,0.00,,,0.00,VWS V14.01,2013-04-09 14:11:00,
2013-04-09 10:16:00,48.1,45.0,30.00,SSE,150,8.0,13.0,89,0.00,,,0.00,VWS V14.01,2013-04-09 14:16:00,
2013-04-09 10:21:00,47.9,44.8,30.00,NE,44,5.0,13.0,89,0.00,,,0.00,VWS V14.01,2013-04-09 14:21:00,
2013-04-09 10:26:00,47.7,44.6,30.01,ESE,121,4.0,13.0,89,0.00,,,0.00,VWS V14.01,2013-04-09 14:26:00,
2013-04-09 10:31:00,47.3,44.5,30.01,SE,145,12.0,13.0,90,0.00,,,0.00,VWS V14.01,2013-04-09 14:31:00,
2013-04-09 10:36:00,47.2,44.7,30.01,ESE,106,4.0,15.0,91,0.00,,,0.00,VWS V14.01,2013-04-09 14:36:00,
2013-04-09 10:41:00,47.1,44.3,30.02,SE,132,8.0,15.0,90,0.00,,,0.00,VWS V14.01,2013-04-09 14:41:00,
2013-04-09 10:46:00,47.1,44.6,30.00,SE,145,7.0,15.0,91,0.00,,,0.00,VWS V14.01,2013-04-09 14:46:00,
2013-04-09 10:51:00,47.3,44.8,30.00,East,91,6.0,15.0,91,0.00,,,0.00,VWS V14.01,2013-04-09 14:51:00,
2013-04-09 10:56:00,47.4,44.6,30.00,SSE,150,10.0,16.0,90,0.00,,,0.00,VWS V14.01,2013-04-09 14:56:00,
2013-04-09 11:00:00,47.5,44.7,30.00,SE,133,7.0,16.0,90,0.00,,,0.00,VWS V14.01,2013-04-09 15:00:00,
2013-04-09 11:01:00,47.5,44.7,30.00,SE,140,4.0,9.0,90,0.00,,,0.00,VWS V14.01,2013-04-09 15:01:00,
2013-04-09 11:06:00,47.9,45.1,30.00,East,82,10.0,10.0,90,0.00,,,0.00,VWS V14.01,2013-04-09 15:06:00,
2013-04-09 11:11:00,48.1,45.3,30.00,ESE,109,2.0,12.0,90,0.00,,,0.00,VWS V14.01,2013-04-09 15:11:00,
2013-04-09 11:16:00,48.3,45.2,29.99,East,81,6.0,12.0,89,0.00,,,0.00,VWS V14.01,2013-04-09 15:16:00,
2013-04-09 11:21:00,48.3,45.2,30.00,SSE,149,7.0,12.0,89,0.00,,,0.00,VWS V14.01,2013-04-09 15:21:00,
2013-04-09 11:26:00,48.3,45.2,30.00,ESE,114,0.0,12.0,89,0.00,,,0.00,VWS V14.01,2013-04-09 15:26:00,
2013-04-09 11:31:00,48.4,45.0,30.01,SE,137,2.0,12.0,88,0.00,,,0.00,VWS V14.01,2013-04-09 15:31:00,
2013-04-09 11:36:00,48.4,45.0,30.00,SE,128,1.0,12.0,88,0.00,,,0.00,VWS V14.01,2013-04-09 15:36:00,
2013-04-09 11:41:00,48.3,44.9,29.99,East,95,1.0,12.0,88,0.00,,,0.00,VWS V14.01,2013-04-09 15:41:00,
2013-04-09 11:46:00,48.4,45.0,29.99,SE,143,4.0,12.0,88,0.00,,,0.00,VWS V14.01,2013-04-09 15:46:00,
2013-04-09 11:51:00,48.5,45.1,30.00,East,98,5.0,12.0,88,0.00,,,0.00,VWS V14.01,2013-04-09 15:51:00,
2013-04-09 11:56:00,48.4,45.0,30.00,SSE,151,6.0,12.0,88,0.00,,,0.00,VWS V14.01,2013-04-09 15:56:00,
2013-04-09 12:00:00,48.3,44.9,30.00,SSE,152,8.0,13.0,88,0.00,,,0.00,VWS V14.01,2013-04-09 16:00:00,
2013-04-09 12:01:00,48.2,44.8,30.00,SSE,152,3.0,8.0,88,0.00,,,0.00,VWS V14.01,2013-04-09 16:01:00,
2013-04-09 12:06:00,48.2,44.8,30.00,ESE,102,6.0,9.0,88,0.00,,,0.00,VWS V14.01,2013-04-09 16:06:00,
2013-04-09 12:11:00,48.2,44.8,29.99,SSE,156,7.0,12.0,88,0.00,,,0.00,VWS V14.01,2013-04-09 16:11:00,
2013-04-09 12:16:00,48.2,44.8,29.98,SSE,148,6.0,12.0,88,0.00,,,0.00,VWS V14.01,2013-04-09 16:16:00,
2013-04-09 12:21:00,48.3,44.6,29.96,East,101,4.0,12.0,87,0.00,,,0.00,VWS V14.01,2013-04-09 16:21:00,
2013-04-09 12:26:00,48.5,44.8,29.95,SE,131,6.0,12.0,87,0.00,,,0.00,VWS V14.01,2013-04-09 16:26:00,
2013-04-09 12:31:00,48.6,44.9,29.95,ENE,74,5.0,12.0,87,0.00,,,0.00,VWS V14.01,2013-04-09 16:31:00,
2013-04-09 12:36:00,48.4,44.7,29.94,East,93,4.0,12.0,87,0.00,,,0.00,VWS V14.01,2013-04-09 16:36:00,
2013-04-09 12:41:00,48.3,44.6,29.94,East,97,5.0,12.0,87,0.00,,,0.00,VWS V14.01,2013-04-09 16:41:00,
2013-04-09 12:46:00,48.3,44.6,29.94,ESE,121,3.0,12.0,87,0.00,,,0.00,VWS V14.01,2013-04-09 16:46:00,
2013-04-09 12:51:00,48.4,44.7,29.94,SE,125,1.0,12.0,87,0.00,,,0.00,VWS V14.01,2013-04-09 16:51:00,
2013-04-09 12:56:00,48.7,45.3,29.94,ENE,69,6.0,12.0,88,0.00,,,0.00,VWS V14.01,2013-04-09 16:56:00,
2013-04-09 13:00:00,48.7,45.0,29.94,ESE,115,5.0,12.0,87,0.00,,,0.00,VWS V14.01,2013-04-09 17:00:00,
2013-04-09 13:01:00,48.6,44.9,29.94,SE,144,4.0,10.0,87,0.00,,,0.00,VWS V14.01,2013-04-09 17:01:00,
2013-04-09 13:07:00,48.3,44.6,29.94,East,88,5.0,11.0,87,0.00,,,0.00,VWS V14.01,2013-04-09 17:07:00,
2013-04-09 13:11:00,48.3,44.9,29.94,ESE,112,5.0,11.0,88,0.00,,,0.00,VWS V14.01,2013-04-09 17:11:00,
2013-04-09 13:17:00,48.4,45.0,29.94,East,80,5.0,11.0,88,0.00,,,0.00,VWS V14.01,2013-04-09 17:17:00,
2013-04-09 13:22:00,48.5,45.1,29.93,East,90,1.0,11.0,88,0.00,,,0.00,VWS V14.01,2013-04-09 17:22:00,
2013-04-09 13:27:00,48.7,45.3,29.93,ESE,106,6.0,11.0,88,0.00,,,0.00,VWS V14.01,2013-04-09 17:27:00,
2013-04-09 13:32:00,48.8,45.4,29.93,ESE,107,0.0,11.0,88,0.00,,,0.00,VWS V14.01,2013-04-09 17:32:00,
2013-04-09 13:37:00,49.0,45.6,29.93,ESE,114,5.0,11.0,88,0.00,,,0.00,VWS V14.01,2013-04-09 17:37:00,
2013-04-09 13:42:00,49.1,45.7,29.92,SE,144,6.0,11.0,88,0.00,,,0.00,VWS V14.01,2013-04-09 17:42:00,
2013-04-09 13:47:00,49.4,46.0,29.92,ESE,105,2.0,11.0,88,0.00,,,0.00,VWS V14.01,2013-04-09 17:47:00,
2013-04-09 13:52:00,49.8,46.1,29.91,East,97,5.0,11.0,87,0.00,,,0.00,VWS V14.01,2013-04-09 17:52:00,
2013-04-09 13:57:00,50.2,46.5,29.90,East,97,6.0,11.0,87,0.00,,,0.00,VWS V14.01,2013-04-09 17:57:00,
2013-04-09 14:00:00,50.6,46.9,29.90,East,90,5.0,11.0,87,0.00,,,0.00,VWS V14.01,2013-04-09 18:00:00,
2013-04-09 14:02:00,50.9,47.2,29.91,ESE,111,7.0,10.0,87,0.00,,,0.00,VWS V14.01,2013-04-09 18:02:00,
2013-04-09 14:07:00,51.5,47.5,29.90,SE,135,6.0,10.0,86,0.00,,,0.00,VWS V14.01,2013-04-09 18:07:00,
2013-04-09 14:12:00,52.1,47.7,29.90,ENE,61,6.0,11.0,85,0.00,,,0.00,VWS V14.01,2013-04-09 18:12:00,
2013-04-09 14:17:00,52.0,47.3,29.89,SSE,152,8.0,11.0,84,0.00,,,0.00,VWS V14.01,2013-04-09 18:17:00,
2013-04-09 14:22:00,52.1,47.4,29.89,ESE,111,7.0,13.0,84,0.00,,,0.00,VWS V14.01,2013-04-09 18:22:00,
2013-04-09 14:27:00,52.2,47.5,29.89,ESE,113,2.0,13.0,84,0.00,,,0.00,VWS V14.01,2013-04-09 18:27:00,
2013-04-09 14:32:00,52.2,47.5,29.89,SSE,152,5.0,13.0,84,0.00,,,0.00,VWS V14.01,2013-04-09 18:32:00,
2013-04-09 14:37:00,52.4,47.7,29.89,ESE,106,4.0,13.0,84,0.00,,,0.00,VWS V14.01,2013-04-09 18:37:00,
2013-04-09 14:42:00,52.4,47.7,29.88,ESE,103,1.0,13.0,84,0.00,,,0.00,VWS V14.01,2013-04-09 18:42:00,
2013-04-09 14:47:00,52.3,47.6,29.88,SE,135,4.0,13.0,84,0.00,,,0.00,VWS V14.01,2013-04-09 18:47:00,
2013-04-09 14:52:00,52.3,47.6,29.87,SE,144,4.0,13.0,84,0.00,,,0.00,VWS V14.01,2013-04-09 18:52:00,
2013-04-09 14:57:00,52.3,47.6,29.88,ENE,70,7.0,13.0,84,0.00,,,0.00,VWS V14.01,2013-04-09 18:57:00,
2013-04-09 15:00:00,52.3,47.6,29.87,SE,125,0.0,13.0,84,0.00,,,0.00,VWS V14.01,2013-04-09 19:00:00,
2013-04-09 15:02:00,52.3,47.6,29.88,SE,140,5.0,7.0,84,0.00,,,0.00,VWS V14.01,2013-04-09 19:02:00,
2013-04-09 15:07:00,52.4,48.0,29.87,SE,144,6.0,8.0,85,0.00,,,0.00,VWS V14.01,2013-04-09 19:07:00,
2013-04-09 15:12:00,52.8,48.4,29.87,SE,126,5.0,8.0,85,0.00,,,0.00,VWS V14.01,2013-04-09 19:12:00,
2013-04-09 15:17:00,53.3,48.9,29.86,SE,129,5.0,9.0,85,0.00,,,0.00,VWS V14.01,2013-04-09 19:17:00,
2013-04-09 15:22:00,53.8,48.4,29.86,East,93,2.0,11.0,82,0.00,,,0.00,VWS V14.01,2013-04-09 19:22:00,
2013-04-09 15:27:00,54.4,49.0,29.86,SE,138,7.0,11.0,82,0.00,,,0.00,VWS V14.01,2013-04-09 19:27:00,
2013-04-09 15:32:00,55.1,49.4,29.85,ESE,119,1.0,11.0,81,0.00,,,0.00,VWS V14.01,2013-04-09 19:32:00,
2013-04-09 15:37:00,55.5,49.4,29.85,ESE,118,1.0,11.0,80,0.00,,,0.00,VWS V14.01,2013-04-09 19:37:00,
2013-04-09 15:42:00,55.7,49.6,29.85,SE,126,1.0,11.0,80,0.00,,,0.00,VWS V14.01,2013-04-09 19:42:00,
2013-04-09 15:47:00,55.9,49.5,29.85,SE,134,5.0,11.0,79,0.00,,,0.00,VWS V14.01,2013-04-09 19:47:00,
2013-04-09 15:52:00,55.7,49.3,29.85,ENE,65,1.0,11.0,79,0.00,,,0.00,VWS V14.01,2013-04-09 19:52:00,
2013-04-09 15:57:00,55.7,49.6,29.85,ENE,68,0.0,11.0,80,0.00,,,0.00,VWS V14.01,2013-04-09 19:57:00,
2013-04-09 16:00:00,55.8,49.7,29.85,ENE,68,4.0,11.0,80,0.00,,,0.00,VWS V14.01,2013-04-09 20:00:00,
2013-04-09 16:02:00,55.8,49.7,29.84,ENE,68,0.0,4.0,80,0.00,,,0.00,VWS V14.01,2013-04-09 20:02:00,
2013-04-09 16:07:00,56.0,49.9,29.84,ENE,69,0.0,4.0,80,0.00,,,0.00,VWS V14.01,2013-04-09 20:07:00,
2013-04-09 16:12:00,56.2,49.8,29.84,ENE,69,1.0,4.0,79,0.00,,,0.00,VWS V14.01,2013-04-09 20:12:00,
2013-04-09 16:17:00,56.3,49.9,29.83,ENE,68,0.0,5.0,79,0.00,,,0.00,VWS V14.01,2013-04-09 20:17:00,
2013-04-09 16:22:00,56.3,49.9,29.84,ENE,69,0.0,5.0,79,0.00,,,0.00,VWS V14.01,2013-04-09 20:22:00,
2013-04-09 16:27:00,56.2,50.1,29.84,ENE,69,0.0,5.0,80,0.00,,,0.00,VWS V14.01,2013-04-09 20:27:00,
2013-04-09 16:32:00,56.0,49.6,29.84,ENE,69,0.0,5.0,79,0.00,,,0.00,VWS V14.01,2013-04-09 20:32:00,
2013-04-09 16:37:00,55.8,49.7,29.83,ENE,69,0.0,5.0,80,0.00,,,0.00,VWS V14.01,2013-04-09 20:37:00,
2013-04-09 16:42:00,55.6,49.9,29.83,ENE,68,2.0,5.0,81,0.00,,,0.00,VWS V14.01,2013-04-09 20:42:00,
2013-04-09 16:47:00,55.5,49.8,29.83,ENE,68,1.0,5.0,81,0.00,,,0.00,VWS V14.01,2013-04-09 20:47:00,
2013-04-09 16:52:00,55.4,49.7,29.83,ENE,68,0.0,5.0,81,0.00,,,0.00,VWS V14.01,2013-04-09 20:52:00,
2013-04-09 16:57:00,55.4,49.7,29.83,ENE,69,2.0,5.0,81,0.00,,,0.00,VWS V14.01,2013-04-09 20:57:00,
2013-04-09 17:00:00,55.3,49.6,29.83,ENE,69,1.0,5.0,81,0.00,,,0.00,VWS V14.01,2013-04-09 21:00:00,
2013-04-09 17:02:00,55.3,49.6,29.83,ENE,68,1.0,2.0,81,0.00,,,0.00,VWS V14.01,2013-04-09 21:02:00,
2013-04-09 17:07:00,55.3,49.6,29.83,ENE,68,2.0,4.0,81,0.00,,,0.00,VWS V14.01,2013-04-09 21:07:00,
2013-04-09 17:12:00,55.4,50.0,29.83,ENE,68,0.0,4.0,82,0.00,,,0.00,VWS V14.01,2013-04-09 21:12:00,
2013-04-09 17:17:00,55.4,50.0,29.82,ENE,68,0.0,4.0,82,0.00,,,0.00,VWS V14.01,2013-04-09 21:17:00,
2013-04-09 17:22:00,55.4,49.7,29.83,ENE,68,0.0,4.0,81,0.00,,,0.00,VWS V14.01,2013-04-09 21:22:00,
2013-04-09 17:27:00,55.3,49.6,29.82,ENE,71,0.0,5.0,81,0.00,,,0.00,VWS V14.01,2013-04-09 21:27:00,
2013-04-09 17:32:00,55.2,49.5,29.82,ENE,70,1.0,5.0,81,0.00,,,0.00,VWS V14.01,2013-04-09 21:32:00,
2013-04-09 17:37:00,55.1,49.4,29.82,NNW,342,2.0,5.0,81,0.00,,,0.00,VWS V14.01,2013-04-09 21:37:00,
2013-04-09 17:42:00,55.0,49.6,29.83,ENE,59,1.0,5.0,82,0.00,,,0.00,VWS V14.01,2013-04-09 21:42:00,
2013-04-09 17:48:00,54.8,49.4,29.83,ENE,67,0.0,6.0,82,0.00,,,0.00,VWS V14.01,2013-04-09 21:48:00,
2013-04-09 17:53:00,54.8,49.7,29.83,ENE,67,0.0,6.0,83,0.00,,,0.00,VWS V14.01,2013-04-09 21:53:00,
2013-04-09 17:58:00,54.7,49.3,29.83,ENE,67,0.0,6.0,82,0.00,,,0.00,VWS V14.01,2013-04-09 21:58:00,
2013-04-09 18:00:00,54.6,49.2,29.83,ENE,67,1.0,6.0,82,0.00,,,0.00,VWS V14.01,2013-04-09 22:00:00,
2013-04-09 18:03:00,54.6,49.2,29.83,ENE,67,0.0,2.0,82,0.00,,,0.00,VWS V14.01,2013-04-09 22:03:00,
2013-04-09 18:08:00,54.5,49.5,29.83,ENE,67,0.0,2.0,83,0.00,,,0.00,VWS V14.01,2013-04-09 22:08:00,
2013-04-09 18:13:00,54.5,49.5,29.84,ENE,67,0.0,2.0,83,0.00,,,0.00,VWS V14.01,2013-04-09 22:13:00,
2013-04-09 18:18:00,54.4,49.3,29.84,ENE,76,0.0,2.0,83,0.00,,,0.00,VWS V14.01,2013-04-09 22:18:00,
2013-04-09 18:23:00,54.2,49.2,29.83,ENE,76,1.0,2.0,83,0.00,,,0.00,VWS V14.01,2013-04-09 22:23:00,
2013-04-09 18:28:00,54.2,49.2,29.83,East,79,0.0,3.0,83,0.00,,,0.00,VWS V14.01,2013-04-09 22:28:00,
2013-04-09 18:33:00,54.2,49.2,29.83,East,79,2.0,3.0,83,0.00,,,0.00,VWS V14.01,2013-04-09 22:33:00,
2013-04-09 18:38:00,54.1,49.7,29.83,East,79,2.0,4.0,85,0.00,,,0.00,VWS V14.01,2013-04-09 22:38:00,
2013-04-09 18:43:00,54.0,49.6,29.84,East,79,0.0,4.0,85,0.00,,,0.00,VWS V14.01,2013-04-09 22:43:00,
2013-04-09 18:48:00,54.0,49.9,29.84,East,79,0.0,4.0,86,0.00,,,0.00,VWS V14.01,2013-04-09 22:48:00,
2013-04-09 18:53:00,54.0,50.2,29.83,East,79,0.0,4.0,87,0.00,,,0.00,VWS V14.01,2013-04-09 22:53:00,
2013-04-09 18:58:00,53.9,50.1,29.84,East,79,0.0,4.0,87,0.00,,,0.00,VWS V14.01,2013-04-09 22:58:00,
2013-04-09 19:00:00,53.9,50.1,29.84,East,79,0.0,4.0,87,0.00,,,0.00,VWS V14.01,2013-04-09 23:00:00,
2013-04-09 19:03:00,53.9,50.1,29.84,East,79,0.0,0.0,87,0.00,,,0.00,VWS V14.01,2013-04-09 23:03:00,
2013-04-09 19:08:00,53.9,50.1,29.83,East,79,0.0,1.0,87,0.00,,,0.00,VWS V14.01,2013-04-09 23:08:00,
2013-04-09 19:13:00,53.9,50.1,29.83,East,79,0.0,1.0,87,0.00,,,0.00,VWS V14.01,2013-04-09 23:13:00,
2013-04-09 19:18:00,54.0,50.2,29.84,East,79,0.0,1.0,87,0.00,,,0.00,VWS V14.01,2013-04-09 23:18:00,
2013-04-09 19:23:00,54.0,50.2,29.83,East,79,0.0,2.0,87,0.00,,,0.00,VWS V14.01,2013-04-09 23:23:00,
2013-04-09 19:28:00,54.0,50.2,29.84,East,79,0.0,2.0,87,0.00,,,0.00,VWS V14.01,2013-04-09 23:28:00,
2013-04-09 19:33:00,54.0,50.2,29.83,East,79,0.0,2.0,87,0.00,,,0.00,VWS V14.01,2013-04-09 23:33:00,
2013-04-09 19:38:00,54.0,50.2,29.83,East,79,1.0,4.0,87,0.00,,,0.00,VWS V14.01,2013-04-09 23:38:00,
2013-04-09 19:43:00,53.9,49.8,29.83,East,79,2.0,4.0,86,0.00,,,0.00,VWS V14.01,2013-04-09 23:43:00,
2013-04-09 19:47:00,54.0,49.9,29.83,ENE,64,1.0,5.0,86,0.00,,,0.00,VWS V14.01,2013-04-09 23:47:00,
2013-04-09 19:52:00,53.9,49.8,29.83,ENE,68,1.0,7.0,86,0.00,,,0.00,VWS V14.01,2013-04-09 23:52:00,
2013-04-09 19:57:00,53.8,49.7,29.83,ENE,68,2.0,7.0,86,0.00,,,0.00,VWS V14.01,2013-04-09 23:57:00,
2013-04-09 20:00:00,53.7,49.6,29.83,ENE,68,0.0,7.0,86,0.00,,,0.00,VWS V14.01,2013-04-10 00:00:00,
2013-04-09 20:03:00,53.7,49.6,29.83,ENE,68,2.0,3.0,86,0.00,,,0.00,VWS V14.01,2013-04-10 00:03:00,
2013-04-09 20:08:00,53.6,49.5,29.83,ENE,76,0.0,5.0,86,0.00,,,0.00,VWS V14.01,2013-04-10 00:08:00,
2013-04-09 20:13:00,53.4,49.3,29.82,ENE,76,0.0,5.0,86,0.00,,,0.00,VWS V14.01,2013-04-10 00:13:00,
2013-04-09 20:18:00,53.2,49.1,29.82,East,88,0.0,6.0,86,0.00,,,0.00,VWS V14.01,2013-04-10 00:18:00,
2013-04-09 20:23:00,53.0,48.9,29.82,ENE,70,4.0,7.0,86,0.00,,,0.00,VWS V14.01,2013-04-10 00:23:00,
2013-04-09 20:28:00,52.6,48.5,29.83,East,84,1.0,7.0,86,0.00,,,0.00,VWS V14.01,2013-04-10 00:28:00,
2013-04-09 20:33:00,52.3,48.2,29.83,East,84,0.0,7.0,86,0.00,,,0.00,VWS V14.01,2013-04-10 00:33:00,
2013-04-09 20:38:00,51.9,48.2,29.84,East,83,3.0,7.0,87,0.00,,,0.00,VWS V14.01,2013-04-10 00:38:00,
2013-04-09 20:43:00,51.7,48.0,29.84,East,84,0.0,7.0,87,0.00,,,0.00,VWS V14.01,2013-04-10 00:43:00,
2013-04-09 20:48:00,51.4,47.7,29.84,East,84,2.0,7.0,87,0.00,,,0.00,VWS V14.01,2013-04-10 00:48:00,
2013-04-09 20:53:00,51.2,47.8,29.84,East,84,1.0,7.0,88,0.00,,,0.00,VWS V14.01,2013-04-10 00:53:00,
2013-04-09 20:58:00,51.0,47.6,29.84,East,88,2.0,7.0,88,0.00,,,0.00,VWS V14.01,2013-04-10 00:58:00,
2013-04-09 21:00:00,50.9,47.5,29.84,East,87,0.0,7.0,88,0.00,,,0.00,VWS V14.01,2013-04-10 01:00:00,
2013-04-09 21:03:00,50.8,47.4,29.85,East,86,1.0,4.0,88,0.00,,,0.00,VWS V14.01,2013-04-10 01:03:00,
2013-04-09 21:08:00,50.8,47.7,29.86,NNE,25,2.0,8.0,89,0.00,,,0.00,VWS V14.01,2013-04-10 01:08:00,
2013-04-09 21:13:00,50.5,47.4,29.87,NNE,29,3.0,10.0,89,0.00,,,0.00,VWS V14.01,2013-04-10 01:13:00,
2013-04-09 21:18:00,50.4,47.3,29.87,NNE,23,0.0,10.0,89,0.00,,,0.00,VWS V14.01,2013-04-10 01:18:00,
2013-04-09 21:23:00,50.2,47.1,29.87,NNE,24,0.0,10.0,89,0.00,,,0.00,VWS V14.01,2013-04-10 01:23:00,
2013-04-09 21:28:00,50.0,46.9,29.86,NE,52,0.0,10.0,89,0.00,,,0.00,VWS V14.01,2013-04-10 01:28:00,
2013-04-09 21:33:00,49.9,47.1,29.87,NE,52,1.0,10.0,90,0.00,,,0.00,VWS V14.01,2013-04-10 01:33:00,
2013-04-09 21:38:00,49.8,47.0,29.89,NNW,338,5.0,10.0,90,0.00,,,0.00,VWS V14.01,2013-04-10 01:38:00,
2013-04-09 21:43:00,49.8,47.0,29.89,NNW,344,0.0,10.0,90,0.00,,,0.00,VWS V14.01,2013-04-10 01:43:00,
2013-04-09 21:48:00,49.6,46.8,29.90,NNE,14,0.0,10.0,90,0.00,,,0.00,VWS V14.01,2013-04-10 01:48:00,
2013-04-09 21:53:00,49.4,46.6,29.90,NNE,21,3.0,10.0,90,0.00,,,0.00,VWS V14.01,2013-04-10 01:53:00,
2013-04-09 21:58:00,49.2,46.4,29.90,NE,34,3.0,10.0,90,0.00,,,0.00,VWS V14.01,2013-04-10 01:58:00,
2013-04-09 22:00:00,49.2,46.7,29.90,North,5,2.0,10.0,91,0.00,,,0.00,VWS V14.01,2013-04-10 02:00:00,
2013-04-09 22:03:00,49.1,46.6,29.90,North,5,5.0,9.0,91,0.00,,,0.00,VWS V14.01,2013-04-10 02:03:00,
2013-04-09 22:08:00,48.8,46.3,29.91,NW,321,2.0,9.0,91,0.00,,,0.00,VWS V14.01,2013-04-10 02:08:00,
2013-04-09 22:13:00,48.4,45.9,29.91,NNE,21,1.0,10.0,91,0.00,,,0.00,VWS V14.01,2013-04-10 02:13:00,
2013-04-09 22:18:00,48.2,45.7,29.91,NNE,17,2.0,10.0,91,0.00,,,0.00,VWS V14.01,2013-04-10 02:18:00,
2013-04-09 22:23:00,48.1,45.9,29.91,NNE,22,1.0,10.0,92,0.00,,,0.00,VWS V14.01,2013-04-10 02:23:00,
2013-04-09 22:28:00,47.9,45.7,29.91,ENE,72,4.0,10.0,92,0.00,,,0.00,VWS V14.01,2013-04-10 02:28:00,
2013-04-09 22:33:00,47.9,45.7,29.92,NE,44,2.0,10.0,92,0.00,,,0.00,VWS V14.01,2013-04-10 02:33:00,
2013-04-09 22:38:00,47.8,45.6,29.92,NE,44,0.0,10.0,92,0.00,,,0.00,VWS V14.01,2013-04-10 02:38:00,
2013-04-09 22:43:00,47.7,45.8,29.92,NE,44,0.0,10.0,93,0.00,,,0.00,VWS V14.01,2013-04-10 02:43:00,
2013-04-09 22:48:00,47.7,45.8,29.92,NE,44,1.0,10.0,93,0.00,,,0.00,VWS V14.01,2013-04-10 02:48:00,
2013-04-09 22:53:00,47.7,45.8,29.92,NE,44,0.0,10.0,93,0.00,,,0.00,VWS V14.01,2013-04-10 02:53:00,
2013-04-09 22:58:00,47.8,45.9,29.92,NE,45,1.0,10.0,93,0.00,,,0.00,VWS V14.01,2013-04-10 02:58:00,
2013-04-09 23:00:00,47.7,45.8,29.91,NE,45,0.0,10.0,93,0.00,,,0.00,VWS V14.01,2013-04-10 03:00:00,
2013-04-09 23:03:00,47.7,45.8,29.91,NE,45,0.0,1.0,93,0.00,,,0.00,VWS V14.01,2013-04-10 03:03:00,
2013-04-09 23:08:00,47.8,45.9,29.91,NE,45,0.0,1.0,93,0.00,,,0.00,VWS V14.01,2013-04-10 03:08:00,
2013-04-09 23:13:00,47.8,45.9,29.91,NE,44,0.0,3.0,93,0.00,,,0.00,VWS V14.01,2013-04-10 03:13:00,
2013-04-09 23:18:00,47.8,45.9,29.91,NE,44,0.0,3.0,93,0.00,,,0.00,VWS V14.01,2013-04-10 03:18:00,
2013-04-09 23:23:00,47.8,45.9,29.90,NE,44,3.0,4.0,93,0.00,,,0.00,VWS V14.01,2013-04-10 03:23:00,
2013-04-09 23:28:00,47.7,45.8,29.91,NE,39,0.0,5.0,93,0.00,,,0.00,VWS V14.01,2013-04-10 03:28:00,
2013-04-09 23:33:00,47.8,46.2,29.91,NE,39,0.0,5.0,94,0.00,,,0.00,VWS V14.01,2013-04-10 03:33:00,
2013-04-09 23:38:00,47.7,46.1,29.91,NE,38,0.0,5.0,94,0.00,,,0.00,VWS V14.01,2013-04-10 03:38:00,
2013-04-09 23:43:00,47.7,46.1,29.90,NE,36,2.0,5.0,94,0.00,,,0.00,VWS V14.01,2013-04-10 03:43:00,
2013-04-09 23:48:00,47.6,46.0,29.90,NE,36,0.0,5.0,94,0.00,,,0.00,VWS V14.01,2013-04-10 03:48:00,
2013-04-09 23:53:00,47.7,46.1,29.90,NE,36,0.0,5.0,94,0.00,,,0.00,VWS V14.01,2013-04-10 03:53:00,
2013-04-09 23:58:00,47.6,46.0,29.90,NE,36,0.0,5.0,94,0.00,,,0.00,VWS V14.01,2013-04-10 03:58:00,